Temp
18 18 18 18 19 20 21 21 21 22 22 22 23 23 22 23 21 18 23 27 28 27 27 26 25 26 26 29 28 27 32 31 29 30 28 27 26 25 25 25 23 23 24 23 20
17 18 18 18 19 19 21 21 21 22 22 23 23 23 22 21 18 20 27 28 28 27 27 27 28 27 30 29 29 31 32 30 30 29 28 27 27 25 25 24 23 23 23 21 21
18 18 18 18 19 20 21 22 22 22 22 23 24 23 21 20 21 29 28 28 28 28 28 28 28 29 30 29 29 28 31 29 27 28 29 26 26 26 25 24 24 24 23 22 21
17 18 18 18 19 20 21 22 22 22 23 24 24 23 21 19 29 28 28 28 28 27 28 27 29 30 30 31 29 30 27 29 28 28 28 26 26 25 25 23 23 23 23 22 22
16 17 18 19 19 20 21 21 22 23 24 24 23 23 21 24 29 28 28 27 27 27 28 29 29 29 31 30 29 28 27 27 27 27 26 26 25 24 23 23 23 22 23 23 22
16 17 17 18 19 20 21 22 22 23 24 24 23 23 21 28 27 27 28 27 27 27 27 28 29 29 29 28 29 27 27 26 27 26 26 25 25 25 23 23 23 23 23 23 23
16 16 17 18 19 20 21 22 22 23 24 24 23 22 22 28 27 27 27 27 27 28 28 27 28 30 29 27 27 27 27 27 26 26 25 27 24 23 23 23 23 23 23 23 22
16 16 17 18 19 20 22 22 23 23 23 23 22 21 26 26 26 26 27 27 27 28 28 28 28 29 28 28 28 28 28 28 26 26 25 26 23 23 23 23 23 23 23 23 22
15 16 17 18 19 20 22 22 22 22 22 21 20 21 28 25 25 27 27 27 27 27 28 28 28 28 28 29 28 27 28 27 26 26 25 25 23 23 23 23 23 23 23 23 22
14 15 16 18 19 20 22 22 21 22 21 20 20 23 27 28 27 27 27 27 29 29 29 29 29 30 28 30 30 29 28 27 27 27 25 24 23 23 23 23 23 23 23 23 22
13 14 16 18 19 21 22 21 22 23 20 24 24 23 25 26 26 27 28 28 30 30 30 29 31 31 31 30 31 31 30 28 25 25 25 25 23 23 23 23 23 24 23 23 22
13 13 16 18 19 20 20 19 18 17 18 21 21 21 22 24 26 28 28 30 29 30 29 30 31 31 30 29 30 30 29 26 24 24 25 23 22 22 23 24 24 24 24 23 22
13 13 15 17 19 19 17 18 16 16 19 22 22 23 25 25 27 28 30 29 29 29 29 31 31 29 30 28 30 31 31 25 26 23 24 23 22 21 22 23 24 24 24 24 23
12 13 14 16 18 16 18 18 18 16 23 26 26 27 25 26 29 29 30 31 29 30 28 30 30 29 30 29 31 32 30 27 24 26 25 25 27 22 22 22 23 24 24 23 20
12 13 13 14 14 14 19 19 18 18 26 27 27 26 26 29 29 29 29 30 30 29 29 31 30 30 30 32 31 27 29 27 27 26 27 25 27 24 22 22 23 23 21 20 19
12 13 13 13 13 18 18 19 18 23 25 27 28 28 28 28 29 29 30 31 30 30 29 30 30 31 31 28 28 28 27 27 27 28 28 26 26 26 22 23 24 22 20 18 18
12 13 13 13 16 18 17 19 23 24 26 27 27 28 28 28 29 30 29 29 30 29 28 29 30 30 29 27 28 29 30 28 28 28 29 25 26 27 24 24 24 22 19 18 18
13 13 15 16 17 16 16 21 23 25 26 27 27 26 28 28 29 29 29 29 28 29 29 30 30 30 31 30 30 29 31 31 28 28 29 25 27 26 21 21 23 21 19 18 18
13 14 14 17 17 15 20 22 25 24 25 25 26 27 27 28 29 29 29 29 30 29 29 29 31 30 31 31 32 29 31 29 26 24 27 27 25 22 20 19 20 19 18 18 17
11 11 13 15 16 15 21 20 22 22 24 25 25 27 27 28 28 29 28 30 30 29 30 30 30 30 30 31 29 32 28 29 29 26 27 26 25 27 21 20 19 18 18 17 17
11 15 15 15 15 19 21 21 21 23 23 25 25 26 27 28 28 29 29 30 30 30 30 30 29 30 30 30 32 30 30 26 27 27 29 28 28 23 24 22 20 19 19 17 17
11 17 14 14 19 16 20 20 20 23 24 25 25 26 26 28 28 28 30 30 29 30 30 28 27 29 29 28 28 29 30 29 31 27 25 27 28 21 22 22 20 19 18 18 17
14 14 14 15 20 19 19 20 21 23 24 25 26 26 27 27 27 28 29 29 29 30 30 28 26 28 30 30 28 30 26 26 25 26 26 28 28 20 22 20 20 19 18 17 16
13 16 16 17 16 18 20 21 22 22 22 24 25 26 26 27 27 28 29 29 28 28 22 25 24 28 29 30 30 29 27 26 28 29 26 27 26 20 19 20 19 18 17 17 15
12 15 13 18 18 18 19 19 20 21 23 23 25 25 25 27 27 27 29 29 28 23 25 26 26 25 25 27 28 29 28 28 29 27 28 26 25 23 20 19 19 18 17 16 15
13 14 13 15 15 17 17 20 20 21 21 24 24 25 25 26 26 27 28 29 30 27 25 24 24 25 26 27 28 27 26 26 25 24 24 24 24 21 21 20 18 17 17 16 15
9 10 13 14 16 18 19 20 21 20 22 24 24 24 25 26 26 26 26 25 26 27 24 24 24 25 25 25 28 28 27 26 25 25 26 27 26 20 18 18 18 18 17 17 16
Height
822 819 816 814 809 806 802 798 794 792 787 783 778 774 772 769 768 766 766 763 764 768 770 774 776 776 777 777 778 779 787 800 803 801 807 805 809 808 809 811 817 819 821 828 834
820 818 815 812 808 805 800 795 792 788 784 779 775 771 770 768 767 765 762 762 763 767 770 774 775 775 775 775 777 779 785 795 793 795 802 807 808 812 817 818 824 825 827 831 834
819 816 813 810 807 803 799 793 790 785 780 775 771 769 769 767 768 758 760 762 764 769 771 773 775 775 778 778 781 786 792 792 799 796 798 808 812 813 819 825 821 825 829 832 835
820 816 812 809 803 800 796 791 787 781 777 772 769 768 767 767 775 759 760 762 765 770 771 773 776 779 782 784 782 790 795 791 798 799 801 811 812 821 821 830 826 827 832 835 836
820 816 812 807 803 799 795 791 783 778 773 770 768 766 767 767 761 758 760 762 766 771 771 772 775 779 783 783 785 792 797 799 801 801 806 811 820 825 832 834 834 832 834 836 838
818 815 811 806 801 797 792 786 780 776 771 769 767 766 768 769 758 757 759 762 765 769 772 772 773 773 780 790 790 795 798 804 805 807 812 819 827 824 837 838 837 836 837 838 839
815 812 809 804 799 794 788 782 777 773 770 768 767 766 768 761 758 758 761 762 765 767 770 771 772 773 777 793 794 796 805 806 811 812 820 815 835 840 836 839 840 838 838 841 842
813 809 806 802 797 791 785 779 773 770 769 768 767 767 765 759 759 760 761 763 766 768 769 771 773 773 779 785 794 803 803 817 819 816 821 820 847 841 838 840 841 839 838 841 844
812 808 804 800 794 788 782 776 771 769 768 767 768 767 763 759 760 759 761 762 766 769 770 772 774 781 786 793 805 810 817 825 827 817 822 827 843 837 837 840 841 840 839 841 846
812 808 804 798 793 787 779 771 769 768 767 767 768 770 759 760 758 758 760 762 765 767 771 774 778 786 791 791 810 811 817 819 821 817 824 831 837 836 836 838 839 839 841 841 845
812 808 804 798 793 787 779 772 774 771 769 768 768 767 761 758 757 757 759 762 763 766 776 776 784 790 782 782 783 787 797 809 823 820 827 830 838 837 837 837 838 837 839 841 844
811 808 803 798 793 789 786 787 795 798 785 767 766 765 760 760 763 756 757 763 768 778 775 782 785 776 778 785 786 790 800 820 827 824 826 835 842 839 836 834 832 834 836 839 843
811 807 802 797 792 790 791 793 793 791 789 765 760 759 754 758 759 757 754 759 768 779 779 781 777 774 779 788 788 785 789 813 816 829 829 836 847 844 838 835 832 832 833 836 839
811 807 803 796 795 793 791 790 788 786 784 764 757 752 753 752 757 749 750 755 766 775 779 778 769 776 780 783 777 784 780 794 814 816 832 827 830 841 836 836 833 830 831 837 844
810 807 804 801 800 796 791 787 784 786 792 757 754 748 750 753 749 752 749 753 767 770 776 774 774 776 779 769 768 791 780 795 805 812 816 831 827 830 833 836 830 831 837 842 846
808 806 804 801 799 792 790 786 786 790 797 764 751 755 757 752 751 750 751 750 753 765 769 769 760 763 764 770 769 781 790 798 803 807 819 821 824 822 833 825 824 829 838 843 847
805 803 801 799 795 791 790 787 792 793 762 765 762 755 757 758 756 753 761 763 769 785 785 771 765 761 761 783 779 779 784 815 823 821 818 823 824 811 814 815 815 826 839 844 848
802 799 795 791 790 790 791 790 800 776 771 755 757 759 763 755 755 758 762 770 763 766 777 779 783 763 753 761 768 779 777 795 825 827 814 821 817 808 819 820 813 826 835 843 849
798 793 788 785 785 787 788 794 779 775 766 767 759 764 762 755 753 757 761 762 756 759 776 779 772 751 751 750 750 779 786 784 812 826 818 814 813 818 823 826 825 830 835 842 849
796 792 785 784 783 786 786 792 780 771 766 764 772 761 764 758 759 756 760 746 753 749 747 761 774 756 756 748 757 759 772 794 793 828 829 821 819 800 821 824 828 832 835 843 849
796 790 783 780 784 783 786 784 779 766 765 766 765 764 758 755 753 755 752 742 738 745 747 753 764 766 756 765 761 772 775 792 791 801 804 815 802 803 800 810 821 828 835 842 847
797 789 783 783 783 790 782 780 774 766 759 759 759 758 757 751 753 754 748 741 731 737 754 752 766 777 773 762 759 759 769 771 780 809 809 804 797 809 805 808 820 827 835 841 846
795 791 784 783 781 781 780 775 771 766 762 758 756 751 748 750 757 747 742 730 730 733 743 748 773 783 778 768 763 766 777 781 786 790 805 801 795 811 804 814 821 827 835 841 848
797 788 783 782 784 780 777 774 772 763 763 757 755 749 750 748 746 747 741 733 731 734 744 744 770 767 780 768 760 772 777 778 775 785 798 793 796 814 815 816 823 829 835 841 847
797 791 792 780 779 779 777 777 775 773 761 757 754 753 755 753 749 750 738 736 735 743 743 746 770 772 774 768 765 766 771 776 777 784 787 791 794 797 806 812 821 827 835 841 846
793 792 792 787 784 781 780 775 774 769 767 757 758 753 752 750 750 751 740 739 736 740 749 752 776 773 779 772 766 776 778 780 784 791 795 795 794 796 804 814 823 828 833 837 842
796 795 792 787 782 779 773 771 770 772 756 753 752 757 754 745 737 737 735 739 740 740 753 757 769 775 791 783 772 782 778 779 782 784 783 787 781 798 811 815 818 824 829 833 839
Wind_Speed
20 22 25 26 27 28 31 32 34 36 35 26 30 25 17 16 12 4 6 4 8 14 15 13 5 4 3 4 2 2 4 7 7 12 7 8 2 4 3 9 5 4 5 16 14
20 22 25 27 28 29 31 33 34 37 33 31 31 19 14 13 5 7 4 12 13 17 17 12 6 4 1 2 2 2 3 4 4 7 12 8 6 4 4 11 7 10 14 14 9
20 22 25 28 28 30 31 34 35 37 33 35 24 11 11 8 2 0 12 13 16 15 14 10 8 1 1 1 2 3 3 6 8 15 14 12 9 4 8 6 5 10 12 13 16
19 22 25 27 30 31 31 34 38 35 36 29 13 7 8 2 2 2 12 15 16 10 14 9 4 3 1 3 2 4 8 4 9 10 10 8 8 9 8 7 12 14 15 17 14
19 22 24 27 29 31 33 34 37 34 33 19 4 5 2 1 3 2 14 16 17 12 8 5 4 4 3 4 5 7 7 10 15 18 17 16 12 12 13 9 14 19 16 14 14
20 22 24 27 29 31 33 37 35 35 21 10 2 4 1 2 3 3 20 19 13 12 7 5 3 4 5 5 4 8 16 12 11 14 9 16 10 3 7 10 14 15 14 11 14
21 23 25 27 30 33 35 36 35 28 11 4 3 3 1 1 3 6 20 12 12 11 5 5 3 1 6 8 9 12 14 12 8 6 7 9 6 7 10 10 12 12 11 9 10
22 24 26 28 30 33 36 32 34 10 4 3 3 1 3 1 0 12 15 5 8 10 2 3 5 4 4 16 5 7 7 8 6 5 5 2 5 8 11 11 11 11 11 9 7
23 24 26 28 31 34 31 34 14 6 4 3 1 1 1 0 3 9 12 5 7 7 1 6 3 4 9 13 7 1 7 6 9 7 4 3 7 8 12 11 11 11 10 9 5
22 23 26 28 30 33 28 22 7 4 4 2 1 1 2 2 1 4 12 9 4 7 4 3 3 6 4 8 7 11 6 8 13 13 6 8 7 12 13 12 11 10 9 9 7
22 23 25 27 30 23 25 7 6 1 7 4 3 4 4 7 3 6 9 6 4 3 5 3 5 11 19 14 4 11 9 13 5 4 9 7 11 12 13 12 11 11 9 8 7
22 25 25 26 27 14 14 6 4 5 9 7 9 8 9 1 3 3 11 6 4 4 6 3 8 6 8 10 8 8 12 7 7 8 3 10 8 8 12 14 14 12 10 10 9
22 25 27 27 17 10 5 7 13 3 4 5 5 4 2 11 6 5 12 5 4 6 7 7 3 10 6 7 8 7 8 15 9 9 6 13 5 7 10 11 13 11 11 9 9
20 23 25 29 4 18 4 9 21 9 3 3 1 1 5 4 4 6 11 5 3 8 6 5 7 8 8 7 9 8 7 17 22 11 4 11 3 10 12 14 12 11 11 8 9
19 20 22 23 14 8 7 20 7 3 1 3 2 2 4 5 5 6 5 3 7 6 5 4 9 8 6 5 11 5 13 17 14 7 9 9 5 3 10 14 14 9 8 9 9
18 19 21 13 17 13 14 20 1 2 2 3 2 3 6 1 2 3 4 2 3 4 3 4 1 4 2 7 11 20 22 12 7 2 4 5 3 5 9 15 14 11 9 11 11
18 19 21 21 5 12 17 4 2 3 2 1 1 1 4 7 5 4 7 8 7 6 6 3 5 4 16 16 8 8 7 3 2 4 3 1 5 2 9 5 13 16 13 12 12
20 21 20 21 17 15 6 1 4 1 3 3 2 4 6 8 6 5 8 10 5 4 3 6 5 10 10 6 10 14 2 4 6 5 2 2 6 3 1 2 9 15 14 13 11
20 16 13 5 5 9 3 3 3 4 2 6 6 2 4 4 4 5 9 13 11 11 4 5 2 3 2 5 10 7 6 5 7 2 3 3 2 5 7 7 13 16 16 15 12
16 9 6 6 5 5 2 3 3 3 4 1 2 2 5 4 7 9 9 7 9 14 12 1 2 3 5 3 12 4 11 4 3 6 5 4 6 9 11 12 14 16 16 15 13
6 4 6 2 10 2 3 4 4 6 4 3 2 3 3 3 6 5 7 4 12 9 12 5 1 2 2 3 7 6 4 5 4 1 3 3 4 2 14 17 18 17 16 16 14
2 3 4 5 3 0 3 4 2 4 2 4 3 5 3 1 3 4 7 4 6 12 10 4 3 3 2 2 1 3 4 5 4 5 0 2 1 4 7 15 16 16 15 14 13
2 3 1 1 3 3 2 3 3 3 3 2 3 4 3 2 2 6 4 0 7 11 11 9 1 4 2 4 3 2 3 4 7 2 5 3 1 4 8 16 15 18 16 14 13
2 2 1 2 0 2 2 1 3 3 5 4 4 4 4 2 3 3 3 1 3 3 5 6 3 3 5 3 3 5 8 4 2 3 6 4 1 7 11 17 17 17 16 15 14
1 0 2 3 4 3 2 1 1 4 3 3 2 2 5 1 2 4 2 3 3 6 3 2 4 2 7 3 2 7 9 5 3 7 1 1 4 10 16 18 18 16 16 15 14
2 1 1 2 2 3 4 2 2 3 4 3 3 7 6 2 2 4 2 1 1 3 2 1 3 1 5 5 5 7 6 9 7 5 3 3 3 2 12 14 16 17 17 15 13
2 1 2 1 1 3 3 4 3 3 7 12 9 8 7 2 4 10 8 1 3 2 3 3 5 3 2 4 4 4 5 3 4 4 4 3 2 15 16 18 19 18 17 15 14
Wind_Direction
348 348 348 350 350 351 347 348 348 344 342 341 336 334 332 336 319 308 235 163 163 163 145 142 139 183 195 134 126 162 154 142 141 149 135 134 89 50 87 114 64 74 108 113 112
345 344 344 347 347 348 345 343 344 341 339 337 331 329 330 335 318 251 184 163 148 154 138 141 161 184 135 38 92 28 138 90 76 122 133 119 106 72 88 107 92 95 108 124 92
340 341 341 342 344 345 343 340 339 339 336 333 328 327 330 340 307 140 168 152 151 146 146 148 147 254 61 54 73 60 57 125 68 111 122 122 91 79 101 73 135 130 120 114 113
340 338 338 338 341 342 341 338 336 337 333 330 325 333 340 28 106 153 168 159 159 152 140 130 145 164 149 137 71 113 54 93 121 113 111 93 101 76 66 97 113 111 114 118 121
340 339 338 336 337 338 338 336 335 334 331 330 328 347 41 268 253 273 183 169 166 162 152 147 159 145 167 108 105 98 98 75 100 91 94 96 84 92 88 107 117 119 121 120 113
339 339 338 336 335 336 336 336 332 331 331 327 353 350 54 204 304 278 168 164 167 168 151 135 178 164 95 65 32 114 105 101 88 89 111 107 96 73 108 133 131 127 126 125 119
337 338 338 337 335 336 336 334 329 327 331 326 345 4 268 305 323 159 168 168 181 179 157 167 172 222 118 106 128 119 103 96 72 100 115 102 65 104 134 149 147 141 134 129 135
337 338 338 337 336 335 335 332 327 325 348 328 336 45 247 175 62 171 172 184 194 193 99 94 140 93 85 129 101 108 116 142 175 133 127 348 128 134 150 157 156 155 151 152 148
337 338 337 336 336 336 336 330 335 327 351 358 360 11 243 134 200 187 185 156 177 204 43 102 56 90 128 130 119 115 162 164 179 202 139 208 141 169 170 170 170 177 166 144 154
340 338 336 336 338 340 339 329 329 356 336 348 301 233 201 134 243 158 192 164 164 145 124 133 114 144 145 186 178 178 164 181 187 199 206 185 170 170 180 182 188 188 174 163 164
345 340 337 336 339 346 356 354 2 356 22 283 298 289 280 305 291 189 168 165 133 160 168 128 196 187 189 206 177 158 150 165 160 176 187 203 158 172 183 194 200 202 188 187 169
344 343 339 336 339 358 33 65 72 300 304 273 247 259 268 338 335 209 160 163 164 165 136 153 227 201 156 170 162 157 146 129 99 144 151 156 147 172 190 205 214 211 201 202 167
339 341 341 337 340 358 37 108 344 213 257 296 220 224 213 169 201 222 178 146 158 157 183 190 161 151 165 176 181 204 192 167 140 130 122 146 151 195 199 220 222 228 228 216 187
334 338 341 338 355 337 309 334 340 174 308 278 224 180 150 203 202 202 186 151 160 189 169 226 168 205 180 202 197 216 169 151 141 154 164 212 192 214 203 209 217 227 230 191 127
325 331 335 338 313 307 316 332 347 181 47 11 114 119 136 198 131 199 183 127 177 165 181 203 178 168 218 237 181 66 141 137 144 108 135 192 253 131 198 212 210 207 164 141 124
316 323 325 329 310 283 314 333 149 246 249 8 115 157 163 230 135 113 167 178 147 165 221 249 294 205 190 39 110 124 114 104 100 135 238 155 246 192 195 220 204 184 155 140 135
312 315 308 300 257 296 318 323 208 236 337 45 79 146 206 185 191 147 177 181 177 183 226 223 217 125 119 100 133 162 148 105 157 204 258 63 212 322 189 199 204 177 153 147 145
313 312 301 280 273 272 304 183 224 251 270 2 349 277 202 172 198 160 172 202 222 190 169 202 201 173 182 186 180 172 159 174 198 206 199 126 237 144 60 294 184 154 148 146 148
319 315 286 284 281 191 196 207 225 209 323 330 319 197 207 207 200 174 195 209 219 201 223 176 201 122 171 170 154 181 214 98 109 59 202 204 256 184 140 120 146 148 152 154 149
326 305 277 316 196 163 176 245 252 231 314 301 273 274 186 177 186 192 179 191 210 204 209 220 171 74 162 117 48 173 132 154 133 160 226 224 268 237 191 170 163 162 161 154 152
321 307 335 234 150 197 212 233 267 257 243 223 275 288 254 154 202 199 203 203 201 182 197 191 291 111 202 8 153 146 160 67 100 307 229 209 229 337 200 181 174 170 166 161 159
329 274 22 112 172 291 191 209 265 280 277 262 244 244 258 27 226 226 215 239 183 153 178 181 111 88 67 34 240 78 142 159 228 183 150 290 203 347 242 178 169 167 166 163 157
283 282 310 294 199 197 236 250 258 275 279 306 270 212 247 267 226 214 209 150 176 164 164 174 158 112 98 159 149 117 93 107 104 124 176 241 109 32 143 160 171 166 166 163 156
277 277 237 196 311 260 191 242 265 305 262 267 282 308 281 251 203 282 218 66 138 124 79 101 111 184 178 174 118 145 137 142 122 178 156 236 198 168 165 166 168 169 166 163 164
262 235 338 184 209 249 296 331 322 319 277 263 240 247 285 317 320 232 185 153 102 155 65 111 115 117 44 336 127 135 151 154 126 132 285 55 215 186 183 177 173 168 166 166 167
253 236 165 286 289 213 196 221 240 279 250 235 230 344 289 165 198 283 31 44 226 116 109 345 108 308 62 16 144 112 111 121 115 133 115 165 209 167 157 163 170 173 172 173 172
193 232 276 335 293 210 211 212 244 349 258 252 292 315 290 297 293 292 243 330 264 188 106 82 132 87 108 360 141 136 163 127 142 174 164 194 111 151 163 179 180 176 179 178 174